Year,Month,Day,Hour,Minute,Value (Times are PST for temperature in C)
2020,08,17,00,00,18.30
2020,08,17,00,01,18.30
2020,08,17,00,02,18.40
2020,08,17,00,03,18.40
2020,08,17,00,04,18.40
2020,08,17,00,05,18.50
2020,08,17,00,06,18.50
2020,08,17,00,07,18.50
2020,08,17,00,08,18.50
2020,08,17,00,09,18.50
2020,08,17,00,10,18.50
2020,08,17,00,11,18.50
2020,08,17,00,12,18.50
2020,08,17,00,13,18.50
2020,08,17,00,14,18.50
2020,08,17,00,15,18.50
2020,08,17,00,16,18.50
2020,08,17,00,17,18.40
2020,08,17,00,18,18.40
2020,08,17,00,19,18.40
2020,08,17,00,20,18.40
2020,08,17,00,21,18.40
2020,08,17,00,22,18.40
2020,08,17,00,23,18.40
2020,08,17,00,24,18.40
2020,08,17,00,25,18.40
2020,08,17,00,26,18.40
2020,08,17,00,27,18.50
2020,08,17,00,28,18.50
2020,08,17,00,29,18.50
2020,08,17,00,30,18.60
2020,08,17,00,31,18.60
2020,08,17,00,32,18.60
2020,08,17,00,33,18.60
2020,08,17,00,34,18.60
2020,08,17,00,35,18.60
2020,08,17,00,36,18.60
2020,08,17,00,37,18.60
2020,08,17,00,38,18.60
2020,08,17,00,39,18.60
2020,08,17,00,40,18.50
2020,08,17,00,41,18.50
2020,08,17,00,42,18.50
2020,08,17,00,43,18.50
2020,08,17,00,44,18.50
2020,08,17,00,45,18.50
2020,08,17,00,46,18.50
2020,08,17,00,47,18.50
2020,08,17,00,48,18.60
2020,08,17,00,49,18.60
2020,08,17,00,50,18.60
2020,08,17,00,51,18.60
2020,08,17,00,52,18.60
2020,08,17,00,53,18.60
2020,08,17,00,54,18.50
2020,08,17,00,55,18.50
2020,08,17,00,56,18.50
2020,08,17,00,57,18.50
2020,08,17,00,58,18.60
2020,08,17,00,59,18.60
2020,08,17,01,00,18.60
2020,08,17,01,01,18.70
2020,08,17,01,02,18.70
2020,08,17,01,03,18.70
2020,08,17,01,04,18.70
2020,08,17,01,05,18.70
2020,08,17,01,06,18.80
2020,08,17,01,07,18.90
2020,08,17,01,08,19.00
2020,08,17,01,09,19.10
2020,08,17,01,10,19.20
2020,08,17,01,11,19.20
2020,08,17,01,12,19.30
2020,08,17,01,13,19.30
2020,08,17,01,14,19.30
2020,08,17,01,15,19.30
2020,08,17,01,16,19.30
2020,08,17,01,17,19.30
2020,08,17,01,18,19.30
2020,08,17,01,19,19.20
2020,08,17,01,20,19.20
2020,08,17,01,21,19.20
2020,08,17,01,22,19.20
2020,08,17,01,23,19.20
2020,08,17,01,24,19.20
2020,08,17,01,25,19.20
2020,08,17,01,26,19.20
2020,08,17,01,27,19.20
2020,08,17,01,28,19.20
2020,08,17,01,29,19.20
2020,08,17,01,30,19.30
2020,08,17,01,31,19.30
2020,08,17,01,32,19.30
2020,08,17,01,33,19.30
2020,08,17,01,34,19.30
2020,08,17,01,35,19.30
2020,08,17,01,36,19.30
2020,08,17,01,37,19.30
2020,08,17,01,38,19.30
2020,08,17,01,39,19.30
2020,08,17,01,40,19.30
2020,08,17,01,41,19.30
2020,08,17,01,42,19.40
2020,08,17,01,43,19.40
2020,08,17,01,44,19.40
2020,08,17,01,45,19.40
2020,08,17,01,46,19.40
2020,08,17,01,47,19.40
2020,08,17,01,48,19.40
2020,08,17,01,49,19.40
2020,08,17,01,50,19.40
2020,08,17,01,51,19.40
2020,08,17,01,52,19.40
2020,08,17,01,53,19.40
2020,08,17,01,54,19.40
2020,08,17,01,55,19.40
2020,08,17,01,56,19.40
2020,08,17,01,57,19.50
2020,08,17,01,58,19.50
2020,08,17,01,59,19.50
2020,08,17,02,00,19.60
2020,08,17,02,01,19.60
2020,08,17,02,02,19.60
2020,08,17,02,03,19.70
2020,08,17,02,04,19.80
2020,08,17,02,05,19.90
2020,08,17,02,06,20.00
2020,08,17,02,07,20.10
2020,08,17,02,08,20.20
2020,08,17,02,09,20.20
2020,08,17,02,10,20.20
2020,08,17,02,11,20.20
2020,08,17,02,12,20.30
2020,08,17,02,13,20.40
2020,08,17,02,14,20.50
2020,08,17,02,15,20.50
2020,08,17,02,16,20.60
2020,08,17,02,17,20.60
2020,08,17,02,18,20.70
2020,08,17,02,19,20.70
2020,08,17,02,20,20.60
2020,08,17,02,21,20.60
2020,08,17,02,22,20.50
2020,08,17,02,23,20.50
2020,08,17,02,24,20.40
2020,08,17,02,25,20.20
2020,08,17,02,26,20.20
2020,08,17,02,27,20.10
2020,08,17,02,28,20.00
2020,08,17,02,29,19.90
2020,08,17,02,30,19.90
2020,08,17,02,31,19.90
2020,08,17,02,32,19.90
2020,08,17,02,33,19.90
2020,08,17,02,34,19.80
2020,08,17,02,35,19.90
2020,08,17,02,36,19.90
2020,08,17,02,37,19.90
2020,08,17,02,38,19.90
2020,08,17,02,39,20.00
2020,08,17,02,40,20.10
2020,08,17,02,41,20.10
2020,08,17,02,42,20.20
2020,08,17,02,43,20.20
2020,08,17,02,44,20.30
2020,08,17,02,45,20.30
2020,08,17,02,46,20.40
2020,08,17,02,47,20.50
2020,08,17,02,48,20.50
2020,08,17,02,49,20.60
2020,08,17,02,50,20.70
2020,08,17,02,51,20.70
2020,08,17,02,52,20.70
2020,08,17,02,53,20.70
2020,08,17,02,54,20.70
2020,08,17,02,55,20.80
2020,08,17,02,56,20.80
2020,08,17,02,57,20.90
2020,08,17,02,58,20.90
2020,08,17,02,59,20.90
2020,08,17,03,00,21.00
2020,08,17,03,01,21.00
2020,08,17,03,02,21.00
2020,08,17,03,03,21.00
2020,08,17,03,04,21.00
2020,08,17,03,05,21.00
2020,08,17,03,06,21.00
2020,08,17,03,07,21.00
2020,08,17,03,08,21.10
2020,08,17,03,09,21.20
2020,08,17,03,10,21.20
2020,08,17,03,11,21.30
2020,08,17,03,12,21.30
2020,08,17,03,13,21.30
2020,08,17,03,14,21.30
2020,08,17,03,15,21.30
2020,08,17,03,16,21.30
2020,08,17,03,17,21.30
2020,08,17,03,18,21.20
2020,08,17,03,19,21.20
2020,08,17,03,20,21.10
2020,08,17,03,21,21.00
2020,08,17,03,22,20.80
2020,08,17,03,23,20.70
2020,08,17,03,24,20.60
2020,08,17,03,25,20.50
2020,08,17,03,26,20.50
2020,08,17,03,27,20.40
2020,08,17,03,28,20.30
2020,08,17,03,29,20.30
2020,08,17,03,30,20.20
2020,08,17,03,31,20.10
2020,08,17,03,32,20.00
2020,08,17,03,33,19.90
2020,08,17,03,34,19.90
2020,08,17,03,35,19.70
2020,08,17,03,36,19.60
2020,08,17,03,37,19.50
2020,08,17,03,38,19.40
2020,08,17,03,39,19.30
2020,08,17,03,40,19.20
2020,08,17,03,41,19.10
2020,08,17,03,42,19.10
2020,08,17,03,43,19.00
2020,08,17,03,44,18.90
2020,08,17,03,45,18.90
2020,08,17,03,46,18.90
2020,08,17,03,47,18.80
2020,08,17,03,48,18.70
2020,08,17,03,49,18.70
2020,08,17,03,50,18.60
2020,08,17,03,51,18.60
2020,08,17,03,52,18.50
2020,08,17,03,53,18.50
2020,08,17,03,54,18.40
2020,08,17,03,55,18.40
2020,08,17,03,56,18.40
2020,08,17,03,57,18.30
2020,08,17,03,58,18.30
2020,08,17,03,59,18.30
2020,08,17,04,00,18.30
2020,08,17,04,01,18.30
2020,08,17,04,02,18.30
2020,08,17,04,03,18.30
2020,08,17,04,04,18.30
2020,08,17,04,05,18.40
2020,08,17,04,06,18.40
2020,08,17,04,07,18.40
2020,08,17,04,08,18.40
2020,08,17,04,09,18.50
2020,08,17,04,10,18.70
2020,08,17,04,11,18.90
2020,08,17,04,12,19.00
2020,08,17,04,13,19.10
2020,08,17,04,14,19.20
2020,08,17,04,15,19.30
2020,08,17,04,16,19.50
2020,08,17,04,17,19.70
2020,08,17,04,18,19.90
2020,08,17,04,19,20.10
2020,08,17,04,20,20.20
2020,08,17,04,21,20.50
2020,08,17,04,22,20.70
2020,08,17,04,23,20.90
2020,08,17,04,24,21.00
2020,08,17,04,25,21.10
2020,08,17,04,26,21.30
2020,08,17,04,27,21.30
2020,08,17,04,28,21.30
2020,08,17,04,29,21.30
2020,08,17,04,30,21.30
2020,08,17,04,31,21.30
2020,08,17,04,32,21.30
2020,08,17,04,33,21.30
2020,08,17,04,34,21.30
2020,08,17,04,35,21.30
2020,08,17,04,36,21.30
2020,08,17,04,37,21.30
2020,08,17,04,38,21.30
2020,08,17,04,39,21.30
2020,08,17,04,40,21.30
2020,08,17,04,41,21.30
2020,08,17,04,42,21.30
2020,08,17,04,43,21.30
2020,08,17,04,44,21.30
2020,08,17,04,45,21.20
2020,08,17,04,46,21.20
2020,08,17,04,47,21.20
2020,08,17,04,48,21.10
2020,08,17,04,49,21.10
2020,08,17,04,50,21.10
2020,08,17,04,51,21.00
2020,08,17,04,52,21.00
2020,08,17,04,53,21.00
2020,08,17,04,54,21.00
2020,08,17,04,55,21.00
2020,08,17,04,56,21.00
2020,08,17,04,57,20.90
2020,08,17,04,58,20.90
2020,08,17,04,59,20.90
2020,08,17,05,00,20.90
2020,08,17,05,01,20.90
2020,08,17,05,02,20.90
2020,08,17,05,03,20.90
2020,08,17,05,04,20.90
2020,08,17,05,05,20.90
2020,08,17,05,06,20.90
2020,08,17,05,07,20.90
2020,08,17,05,08,21.00
2020,08,17,05,09,21.00
2020,08,17,05,10,21.00
2020,08,17,05,11,21.10
2020,08,17,05,12,21.10
2020,08,17,05,13,21.10
2020,08,17,05,14,21.10
2020,08,17,05,15,21.00
2020,08,17,05,16,21.00
2020,08,17,05,17,21.00
2020,08,17,05,18,21.00
2020,08,17,05,19,20.90
2020,08,17,05,20,20.90
2020,08,17,05,21,20.80
2020,08,17,05,22,20.80
2020,08,17,05,23,20.70
2020,08,17,05,24,20.60
2020,08,17,05,25,20.50
2020,08,17,05,26,20.50
2020,08,17,05,27,20.50
2020,08,17,05,28,20.40
2020,08,17,05,29,20.40
2020,08,17,05,30,20.30
2020,08,17,05,31,20.30
2020,08,17,05,32,20.20
2020,08,17,05,33,20.20
2020,08,17,05,34,20.20
2020,08,17,05,35,20.20
2020,08,17,05,36,20.20
2020,08,17,05,37,20.30
2020,08,17,05,38,20.30
2020,08,17,05,39,20.30
2020,08,17,05,40,20.30
2020,08,17,05,41,20.30
2020,08,17,05,42,20.30
2020,08,17,05,43,20.30
2020,08,17,05,44,20.30
2020,08,17,05,45,20.30
2020,08,17,05,46,20.30
2020,08,17,05,47,20.20
2020,08,17,05,48,20.20
2020,08,17,05,49,20.20
2020,08,17,05,50,20.10
2020,08,17,05,51,20.00
2020,08,17,05,52,19.90
2020,08,17,05,53,19.90
2020,08,17,05,54,19.90
2020,08,17,05,55,19.90
2020,08,17,05,56,19.80
2020,08,17,05,57,19.80
2020,08,17,05,58,19.80
2020,08,17,05,59,19.70
2020,08,17,06,00,19.70
2020,08,17,06,01,19.70
2020,08,17,06,02,19.70
2020,08,17,06,03,19.60
2020,08,17,06,04,19.60
2020,08,17,06,05,19.60
2020,08,17,06,06,19.60
2020,08,17,06,07,19.50
2020,08,17,06,08,19.50
2020,08,17,06,09,19.40
2020,08,17,06,10,19.30
2020,08,17,06,11,19.30
2020,08,17,06,12,19.20
2020,08,17,06,13,19.10
2020,08,17,06,14,19.10
2020,08,17,06,15,19.10
2020,08,17,06,16,19.00
2020,08,17,06,17,18.90
2020,08,17,06,18,18.90
2020,08,17,06,19,18.90
2020,08,17,06,20,18.90
2020,08,17,06,21,18.80
2020,08,17,06,22,18.80
2020,08,17,06,23,18.80
2020,08,17,06,24,18.80
2020,08,17,06,25,18.70
2020,08,17,06,26,18.70
2020,08,17,06,27,18.70
2020,08,17,06,28,18.60
2020,08,17,06,29,18.60
2020,08,17,06,30,18.60
2020,08,17,06,31,18.50
2020,08,17,06,32,18.50
2020,08,17,06,33,18.50
2020,08,17,06,34,18.50
2020,08,17,06,35,18.50
2020,08,17,06,36,18.60
2020,08,17,06,37,18.60
2020,08,17,06,38,18.60
2020,08,17,06,39,18.60
2020,08,17,06,40,18.60
2020,08,17,06,41,18.70
2020,08,17,06,42,18.70
2020,08,17,06,43,18.70
2020,08,17,06,44,18.80
2020,08,17,06,45,18.80
2020,08,17,06,46,18.80
2020,08,17,06,47,18.80
2020,08,17,06,48,18.80
2020,08,17,06,49,18.80
2020,08,17,06,50,18.80
2020,08,17,06,51,18.90
2020,08,17,06,52,18.90
2020,08,17,06,53,18.90
2020,08,17,06,54,18.90
2020,08,17,06,55,18.90
2020,08,17,06,56,18.90
2020,08,17,06,57,18.90
2020,08,17,06,58,18.90
2020,08,17,06,59,18.90
2020,08,17,07,00,18.90
2020,08,17,07,01,18.90
2020,08,17,07,02,18.90
2020,08,17,07,03,18.90
2020,08,17,07,04,18.90
2020,08,17,07,05,18.90
2020,08,17,07,06,18.90
2020,08,17,07,07,18.90
2020,08,17,07,08,18.90
2020,08,17,07,09,18.90
2020,08,17,07,10,19.00
2020,08,17,07,11,19.10
2020,08,17,07,12,19.10
2020,08,17,07,13,19.10
2020,08,17,07,14,19.10
2020,08,17,07,15,19.10
2020,08,17,07,16,19.10
2020,08,17,07,17,19.20
2020,08,17,07,18,19.20
2020,08,17,07,19,19.30
2020,08,17,07,20,19.30
2020,08,17,07,21,19.30
2020,08,17,07,22,19.40
2020,08,17,07,23,19.40
2020,08,17,07,24,19.50
2020,08,17,07,25,19.50
2020,08,17,07,26,19.50
2020,08,17,07,27,19.60
2020,08,17,07,28,19.60
2020,08,17,07,29,19.70
2020,08,17,07,30,19.70
2020,08,17,07,31,19.70
2020,08,17,07,32,19.80
2020,08,17,07,33,19.80
2020,08,17,07,34,19.80
2020,08,17,07,35,19.90
2020,08,17,07,36,19.90
2020,08,17,07,37,19.90
2020,08,17,07,38,19.90
2020,08,17,07,39,20.00
2020,08,17,07,40,20.10
2020,08,17,07,41,20.10
2020,08,17,07,42,20.20
2020,08,17,07,43,20.20
2020,08,17,07,44,20.20
2020,08,17,07,45,20.20
2020,08,17,07,46,20.20
2020,08,17,07,47,20.20
2020,08,17,07,48,20.30
2020,08,17,07,49,20.30
2020,08,17,07,50,20.30
2020,08,17,07,51,20.30
2020,08,17,07,52,20.40
2020,08,17,07,53,20.40
2020,08,17,07,54,20.40
2020,08,17,07,55,20.50
2020,08,17,07,56,20.50
2020,08,17,07,57,20.50
2020,08,17,07,58,20.50
2020,08,17,07,59,20.60
2020,08,17,08,00,20.60
2020,08,17,08,01,20.60
2020,08,17,08,02,20.60
2020,08,17,08,03,20.70
2020,08,17,08,04,20.70
2020,08,17,08,05,20.80
2020,08,17,08,06,20.80
2020,08,17,08,07,20.80
2020,08,17,08,08,20.90
2020,08,17,08,09,20.90
2020,08,17,08,10,20.90
2020,08,17,08,11,21.00
2020,08,17,08,12,21.00
2020,08,17,08,13,21.00
2020,08,17,08,14,21.10
2020,08,17,08,15,21.10
2020,08,17,08,16,21.20
2020,08,17,08,17,21.20
2020,08,17,08,18,21.30
2020,08,17,08,19,21.30
2020,08,17,08,20,21.30
2020,08,17,08,21,21.30
2020,08,17,08,22,21.40
2020,08,17,08,23,21.40
2020,08,17,08,24,21.50
2020,08,17,08,25,21.60
2020,08,17,08,26,21.60
2020,08,17,08,27,21.60
2020,08,17,08,28,21.60
2020,08,17,08,29,21.60
2020,08,17,08,30,21.60
2020,08,17,08,31,21.70
2020,08,17,08,32,21.80
2020,08,17,08,33,21.80
2020,08,17,08,34,21.90
2020,08,17,08,35,21.90
2020,08,17,08,36,22.00
2020,08,17,08,37,22.00
2020,08,17,08,38,22.10
2020,08,17,08,39,22.10
2020,08,17,08,40,22.20
2020,08,17,08,41,22.20
2020,08,17,08,42,22.30
2020,08,17,08,43,22.30
2020,08,17,08,44,22.40
2020,08,17,08,45,22.50
2020,08,17,08,46,22.50
2020,08,17,08,47,22.50
2020,08,17,08,48,22.60
2020,08,17,08,49,22.60
2020,08,17,08,50,22.60
2020,08,17,08,51,22.70
2020,08,17,08,52,22.70
2020,08,17,08,53,22.70
2020,08,17,08,54,22.70
2020,08,17,08,55,22.80
2020,08,17,08,56,22.80
2020,08,17,08,57,22.80
2020,08,17,08,58,22.90
2020,08,17,08,59,22.90
2020,08,17,09,00,22.90
2020,08,17,09,01,22.90
2020,08,17,09,02,22.90
2020,08,17,09,03,23.00
2020,08,17,09,04,23.10
2020,08,17,09,05,23.20
2020,08,17,09,06,23.20
2020,08,17,09,07,23.20
2020,08,17,09,08,23.20
2020,08,17,09,09,23.20
2020,08,17,09,10,23.30
2020,08,17,09,11,23.30
2020,08,17,09,12,23.40
2020,08,17,09,13,23.40
2020,08,17,09,14,23.40
2020,08,17,09,15,23.40
2020,08,17,09,16,23.40
2020,08,17,09,17,23.40
2020,08,17,09,18,23.40
2020,08,17,09,19,23.40
2020,08,17,09,20,23.40
2020,08,17,09,21,23.40
2020,08,17,09,22,23.40
2020,08,17,09,23,23.50
2020,08,17,09,24,23.60
2020,08,17,09,25,23.60
2020,08,17,09,26,23.60
2020,08,17,09,27,23.70
2020,08,17,09,28,23.70
2020,08,17,09,29,23.70
2020,08,17,09,30,23.70
2020,08,17,09,31,23.70
2020,08,17,09,32,23.70
2020,08,17,09,33,23.80
2020,08,17,09,34,23.80
2020,08,17,09,35,23.90
2020,08,17,09,36,23.90
2020,08,17,09,37,23.90
2020,08,17,09,38,23.90
2020,08,17,09,39,23.90
2020,08,17,09,40,23.90
2020,08,17,09,41,23.90
2020,08,17,09,42,23.90
2020,08,17,09,43,23.90
2020,08,17,09,44,24.00
2020,08,17,09,45,24.10
2020,08,17,09,46,24.10
2020,08,17,09,47,24.00
2020,08,17,09,48,24.00
2020,08,17,09,49,24.10
2020,08,17,09,50,24.10
2020,08,17,09,51,24.10
2020,08,17,09,52,24.10
2020,08,17,09,53,24.10
2020,08,17,09,54,24.20
2020,08,17,09,55,24.30
2020,08,17,09,56,24.30
2020,08,17,09,57,24.20
2020,08,17,09,58,24.20
2020,08,17,09,59,24.20
2020,08,17,10,00,24.20
2020,08,17,10,01,24.30
2020,08,17,10,02,24.30
2020,08,17,10,03,24.40
2020,08,17,10,04,24.40
2020,08,17,10,05,24.40
2020,08,17,10,06,24.40
2020,08,17,10,07,24.30
2020,08,17,10,08,24.40
2020,08,17,10,09,24.40
2020,08,17,10,10,24.40
2020,08,17,10,11,24.50
2020,08,17,10,12,24.50
2020,08,17,10,13,24.60
2020,08,17,10,14,24.60
2020,08,17,10,15,24.60
2020,08,17,10,16,24.60
2020,08,17,10,17,24.60
2020,08,17,10,18,24.60
2020,08,17,10,19,24.60
2020,08,17,10,20,24.60
2020,08,17,10,21,24.60
2020,08,17,10,22,24.60
2020,08,17,10,23,24.60
2020,08,17,10,24,24.60
2020,08,17,10,25,24.60
2020,08,17,10,26,24.70
2020,08,17,10,27,24.70
2020,08,17,10,28,24.60
2020,08,17,10,29,24.60
2020,08,17,10,30,24.60
2020,08,17,10,31,24.60
2020,08,17,10,32,24.60
2020,08,17,10,33,24.60
2020,08,17,10,34,24.70
2020,08,17,10,35,24.70
2020,08,17,10,36,24.70
2020,08,17,10,37,24.80
2020,08,17,10,38,24.90
2020,08,17,10,39,24.90
2020,08,17,10,40,24.90
2020,08,17,10,41,25.00
2020,08,17,10,42,25.00
2020,08,17,10,43,25.00
2020,08,17,10,44,25.10
2020,08,17,10,45,25.10
2020,08,17,10,46,25.10
2020,08,17,10,47,25.10
2020,08,17,10,48,25.20
2020,08,17,10,49,25.30
2020,08,17,10,50,25.30
2020,08,17,10,51,25.20
2020,08,17,10,52,25.20
2020,08,17,10,53,25.20
2020,08,17,10,54,25.20
2020,08,17,10,55,25.20
2020,08,17,10,56,25.30
2020,08,17,10,57,25.40
2020,08,17,10,58,25.40
2020,08,17,10,59,25.50
2020,08,17,11,00,25.50
2020,08,17,11,01,25.50
2020,08,17,11,02,25.60
2020,08,17,11,03,25.60
2020,08,17,11,04,25.70
2020,08,17,11,05,25.70
2020,08,17,11,06,25.80
2020,08,17,11,07,25.70
2020,08,17,11,08,25.70
2020,08,17,11,09,25.70
2020,08,17,11,10,25.70
2020,08,17,11,11,25.70
2020,08,17,11,12,25.70
2020,08,17,11,13,25.70
2020,08,17,11,14,25.70
2020,08,17,11,15,25.70
2020,08,17,11,16,25.70
2020,08,17,11,17,25.70
2020,08,17,11,18,25.70
2020,08,17,11,19,25.60
2020,08,17,11,20,25.60
2020,08,17,11,21,25.60
2020,08,17,11,22,25.60
2020,08,17,11,23,25.60
2020,08,17,11,24,25.60
2020,08,17,11,25,25.60
2020,08,17,11,26,25.60
2020,08,17,11,27,25.60
2020,08,17,11,28,25.60
2020,08,17,11,29,25.60
2020,08,17,11,30,25.60
2020,08,17,11,31,25.60
2020,08,17,11,32,25.50
2020,08,17,11,33,25.50
2020,08,17,11,34,25.60
2020,08,17,11,35,25.60
2020,08,17,11,36,25.70
2020,08,17,11,37,25.80
2020,08,17,11,38,25.80
2020,08,17,11,39,25.90
2020,08,17,11,40,26.00
2020,08,17,11,41,26.00
2020,08,17,11,42,26.10
2020,08,17,11,43,26.10
2020,08,17,11,44,26.20
2020,08,17,11,45,26.20
2020,08,17,11,46,26.00
2020,08,17,11,47,26.00
2020,08,17,11,48,25.90
2020,08,17,11,49,25.80
2020,08,17,11,50,25.70
2020,08,17,11,51,25.60
2020,08,17,11,52,25.60
2020,08,17,11,53,25.40
2020,08,17,11,54,25.40
2020,08,17,11,55,25.40
2020,08,17,11,56,25.50
2020,08,17,11,57,25.50
2020,08,17,11,58,25.40
2020,08,17,11,59,25.40
2020,08,17,12,00,25.40
2020,08,17,12,01,25.40
2020,08,17,12,02,25.40
2020,08,17,12,03,25.30
2020,08,17,12,04,25.20
2020,08,17,12,05,25.10
2020,08,17,12,06,25.00
2020,08,17,12,07,24.90
2020,08,17,12,08,25.00
2020,08,17,12,09,25.10
2020,08,17,12,10,25.10
2020,08,17,12,11,25.20
2020,08,17,12,12,25.20
2020,08,17,12,13,25.30
2020,08,17,12,14,25.30
2020,08,17,12,15,25.30
2020,08,17,12,16,25.30
2020,08,17,12,17,25.30
2020,08,17,12,18,25.30
2020,08,17,12,19,25.30
2020,08,17,12,20,25.30
2020,08,17,12,21,25.30
2020,08,17,12,22,25.10
2020,08,17,12,23,24.90
2020,08,17,12,24,24.80
2020,08,17,12,25,24.70
2020,08,17,12,26,24.60
2020,08,17,12,27,24.60
2020,08,17,12,28,24.60
2020,08,17,12,29,24.70
2020,08,17,12,30,24.70
2020,08,17,12,31,24.80
2020,08,17,12,32,24.80
2020,08,17,12,33,24.80
2020,08,17,12,34,24.90
2020,08,17,12,35,24.80
2020,08,17,12,36,24.90
2020,08,17,12,37,25.00
2020,08,17,12,38,25.10
2020,08,17,12,39,25.10
2020,08,17,12,40,25.20
2020,08,17,12,41,25.00
2020,08,17,12,42,24.90
2020,08,17,12,43,24.70
2020,08,17,12,44,24.40
2020,08,17,12,45,24.00
2020,08,17,12,46,23.60
2020,08,17,12,47,23.20
2020,08,17,12,48,22.90
2020,08,17,12,49,22.50
2020,08,17,12,50,22.10
2020,08,17,12,51,21.90
2020,08,17,12,52,21.70
2020,08,17,12,53,21.70
2020,08,17,12,54,21.60
2020,08,17,12,55,21.60
2020,08,17,12,56,21.60
2020,08,17,12,57,21.80
2020,08,17,12,58,21.90
2020,08,17,12,59,22.00
2020,08,17,13,00,22.20
2020,08,17,13,01,22.40
2020,08,17,13,02,22.60
2020,08,17,13,03,22.80
2020,08,17,13,04,22.90
2020,08,17,13,05,23.10
2020,08,17,13,06,23.20
2020,08,17,13,07,23.30
2020,08,17,13,08,23.40
2020,08,17,13,09,23.60
2020,08,17,13,10,23.70
2020,08,17,13,11,23.80
2020,08,17,13,12,23.90
2020,08,17,13,13,24.00
2020,08,17,13,14,24.10
2020,08,17,13,15,24.20
2020,08,17,13,16,24.30
2020,08,17,13,17,24.40
2020,08,17,13,18,24.40
2020,08,17,13,19,24.40
2020,08,17,13,20,24.20
2020,08,17,13,21,24.10
2020,08,17,13,22,24.10
2020,08,17,13,23,24.00
2020,08,17,13,24,23.90
2020,08,17,13,25,23.70
2020,08,17,13,26,23.70
2020,08,17,13,27,23.60
2020,08,17,13,28,23.50
2020,08,17,13,29,23.40
2020,08,17,13,30,23.30
2020,08,17,13,31,23.30
2020,08,17,13,32,23.30
2020,08,17,13,33,23.30
2020,08,17,13,34,23.30
2020,08,17,13,35,23.10
2020,08,17,13,36,22.80
2020,08,17,13,37,22.60
2020,08,17,13,38,22.40
2020,08,17,13,39,22.30
2020,08,17,13,40,22.20
2020,08,17,13,41,22.00
2020,08,17,13,42,22.00
2020,08,17,13,43,21.80
2020,08,17,13,44,21.60
2020,08,17,13,45,21.50
2020,08,17,13,46,21.40
2020,08,17,13,47,21.30
2020,08,17,13,48,21.20
2020,08,17,13,49,21.10
2020,08,17,13,50,21.10
2020,08,17,13,51,21.20
2020,08,17,13,52,21.20
2020,08,17,13,53,21.20
2020,08,17,13,54,21.30
2020,08,17,13,55,21.40
2020,08,17,13,56,21.60
2020,08,17,13,57,21.70
2020,08,17,13,58,21.80
2020,08,17,13,59,21.90
2020,08,17,14,00,22.00
2020,08,17,14,01,22.10
2020,08,17,14,02,22.20
2020,08,17,14,03,22.20
2020,08,17,14,04,22.30
2020,08,17,14,05,22.30
2020,08,17,14,06,22.30
2020,08,17,14,07,22.30
2020,08,17,14,08,22.30
2020,08,17,14,09,22.30
2020,08,17,14,10,22.40
2020,08,17,14,11,22.30
2020,08,17,14,12,22.20
2020,08,17,14,13,22.10
2020,08,17,14,14,22.00
2020,08,17,14,15,21.80
2020,08,17,14,16,21.70
2020,08,17,14,17,21.70
2020,08,17,14,18,21.80
2020,08,17,14,19,21.90
2020,08,17,14,20,22.00
2020,08,17,14,21,22.00
2020,08,17,14,22,22.10
2020,08,17,14,23,22.20
2020,08,17,14,24,22.20
2020,08,17,14,25,22.20
2020,08,17,14,26,22.20
2020,08,17,14,27,22.20
2020,08,17,14,28,22.20
2020,08,17,14,29,22.20
2020,08,17,14,30,22.20
2020,08,17,14,31,22.10
2020,08,17,14,32,22.10
2020,08,17,14,33,21.90
2020,08,17,14,34,21.80
2020,08,17,14,35,21.70
2020,08,17,14,36,21.60
2020,08,17,14,37,21.60
2020,08,17,14,38,21.60
2020,08,17,14,39,21.60
2020,08,17,14,40,21.60
2020,08,17,14,41,21.70
2020,08,17,14,42,21.80
2020,08,17,14,43,21.90
2020,08,17,14,44,22.00
2020,08,17,14,45,22.00
2020,08,17,14,46,22.00
2020,08,17,14,47,21.90
2020,08,17,14,48,21.90
2020,08,17,14,49,21.80
2020,08,17,14,50,21.80
2020,08,17,14,51,21.70
2020,08,17,14,52,21.80
2020,08,17,14,53,21.90
2020,08,17,14,54,21.90
2020,08,17,14,55,22.00
2020,08,17,14,56,21.90
2020,08,17,14,57,21.90
2020,08,17,14,58,21.90
2020,08,17,14,59,21.90
2020,08,17,15,00,21.80
2020,08,17,15,01,21.80
2020,08,17,15,02,21.70
2020,08,17,15,03,21.70
2020,08,17,15,04,21.70
2020,08,17,15,05,21.80
2020,08,17,15,06,21.90
2020,08,17,15,07,22.00
2020,08,17,15,08,22.00
2020,08,17,15,09,22.00
2020,08,17,15,10,22.00
2020,08,17,15,11,22.00
2020,08,17,15,12,21.90
2020,08,17,15,13,21.80
2020,08,17,15,14,21.70
2020,08,17,15,15,21.60
2020,08,17,15,16,21.40
2020,08,17,15,17,21.30
2020,08,17,15,18,21.10
2020,08,17,15,19,20.80
2020,08,17,15,20,20.60
2020,08,17,15,21,20.50
2020,08,17,15,22,20.40
2020,08,17,15,23,20.20
2020,08,17,15,24,20.10
2020,08,17,15,25,20.10
2020,08,17,15,26,20.00
2020,08,17,15,27,19.90
2020,08,17,15,28,19.90
2020,08,17,15,29,19.80
2020,08,17,15,30,19.80
2020,08,17,15,31,19.90
2020,08,17,15,32,19.90
2020,08,17,15,33,19.90
2020,08,17,15,34,20.00
2020,08,17,15,35,20.20
2020,08,17,15,36,20.30
2020,08,17,15,37,20.40
2020,08,17,15,38,20.50
2020,08,17,15,39,20.50
2020,08,17,15,40,20.50
2020,08,17,15,41,20.40
2020,08,17,15,42,20.50
2020,08,17,15,43,20.60
2020,08,17,15,44,20.70
2020,08,17,15,45,20.70
2020,08,17,15,46,20.70
2020,08,17,15,47,20.60
2020,08,17,15,48,20.60
2020,08,17,15,49,20.50
2020,08,17,15,50,20.60
2020,08,17,15,51,20.80
2020,08,17,15,52,20.90
2020,08,17,15,53,21.00
2020,08,17,15,54,21.20
2020,08,17,15,55,21.40
2020,08,17,15,56,21.50
2020,08,17,15,57,21.60
2020,08,17,15,58,21.70
2020,08,17,15,59,21.80
2020,08,17,16,00,21.90
2020,08,17,16,01,21.90
2020,08,17,16,02,21.90
2020,08,17,16,03,21.90
2020,08,17,16,04,21.90
2020,08,17,16,05,21.90
2020,08,17,16,06,22.00
2020,08,17,16,07,22.10
2020,08,17,16,08,22.20
2020,08,17,16,09,22.30
2020,08,17,16,10,22.30
2020,08,17,16,11,22.30
2020,08,17,16,12,22.40
2020,08,17,16,13,22.50
2020,08,17,16,14,22.60
2020,08,17,16,15,22.50
2020,08,17,16,16,22.50
2020,08,17,16,17,22.50
2020,08,17,16,18,22.50
2020,08,17,16,19,22.40
2020,08,17,16,20,22.40
2020,08,17,16,21,22.40
2020,08,17,16,22,22.40
2020,08,17,16,23,22.40
2020,08,17,16,24,22.40
2020,08,17,16,25,22.50
2020,08,17,16,26,22.50
2020,08,17,16,27,22.80
2020,08,17,16,28,23.20
2020,08,17,16,29,23.50
2020,08,17,16,30,24.00
2020,08,17,16,31,24.30
2020,08,17,16,32,24.60
2020,08,17,16,33,24.90
2020,08,17,16,34,25.20
2020,08,17,16,35,25.40
2020,08,17,16,36,25.50
2020,08,17,16,37,25.60
2020,08,17,16,38,25.70
2020,08,17,16,39,25.80
2020,08,17,16,40,25.90
2020,08,17,16,41,26.00
2020,08,17,16,42,26.10
2020,08,17,16,43,26.30
2020,08,17,16,44,26.40
2020,08,17,16,45,26.50
2020,08,17,16,46,26.60
2020,08,17,16,47,26.60
2020,08,17,16,48,26.60
2020,08,17,16,49,26.60
2020,08,17,16,50,26.60
2020,08,17,16,51,26.70
2020,08,17,16,52,26.70
2020,08,17,16,53,26.70
2020,08,17,16,54,26.70
2020,08,17,16,55,26.70
2020,08,17,16,56,26.70
2020,08,17,16,57,26.70
2020,08,17,16,58,26.70
2020,08,17,16,59,26.70
2020,08,17,17,00,26.70
2020,08,17,17,01,26.60
2020,08,17,17,02,26.60
2020,08,17,17,03,26.60
2020,08,17,17,04,26.60
2020,08,17,17,05,26.60
2020,08,17,17,06,26.50
2020,08,17,17,07,26.40
2020,08,17,17,08,26.40
2020,08,17,17,09,26.40
2020,08,17,17,10,26.40
2020,08,17,17,11,26.40
2020,08,17,17,12,26.40
2020,08,17,17,13,26.40
2020,08,17,17,14,26.40
2020,08,17,17,15,26.30
2020,08,17,17,16,26.30
2020,08,17,17,17,26.40
2020,08,17,17,18,26.40
2020,08,17,17,19,26.50